Flag for U.S.A. Weather past 2 weeks in Costa Mesa, California, U.S.A.

Now
70 °F

Clear.


Feels Like: 70 °F
Forecast: 69 / 82 °F
Wind: No wind

Location: John Wayne Airport-Orange County Airport

Current Time: Jul 30, 2015 at 6:08:49 AM

Latest Report: Jul 30, 2015 at 4:53 AM


Visibility: 10 mi

Pressure: 29.95 "Hg

Humidity: 81%

Dew point: 64 °F

Location of Costa MesaLocation

Historic Weather in Costa Mesa — Graph

°F

Costa Mesa temperature yesterday

Maximum temperature yesterday: 78 °F (at 12:53 PM)
Minimum temperature yesterday: 70 °F (at 12:53 AM)
Average temperature yesterday: 72 °F

Past Weeks' High & Low Weather Summary

 TemperatureHumidityPressure
High88 °F (Jul 19, 11:53 AM)96% (Jul 19, 5:53 AM)30.07 "Hg (Jul 19, 5:53 AM)
Low66 °F (Jul 16, 10:53 PM)37% (Jul 18, 10:53 AM)29.79 "Hg (Jul 17, 4:53 PM)
Average73 °F74%29.93 "Hg
* Reported Jul 15 4:53 AM — Jul 30 4:53 AM, Costa Mesa, Weather by CustomWeather, © 2015

Note: Actual official high and low records may vary slightly from our data, if they occured in-between our weather recording intervals... More about our weather records

Advertising

Costa Mesa weather history for previous 24 hours

 ConditionsComfort  
Time TempWeatherWind HumidityBarometerVisibility
4:53 AM
Thu, Jul 30
70 °FClear.No wind81%29.95 "Hg10 mi
3:53 AM70 °FClear.No wind84%29.96 "Hg10 mi
2:53 AM70 °FClear.3 mph84%29.95 "Hg10 mi
1:53 AM70 °FClear.3 mph84%29.96 "Hg10 mi
12:53 AM70 °FPassing clouds.3 mph84%29.97 "Hg10 mi
11:53 PM
Wed, Jul 29
70 °FClear.No wind81%29.97 "Hg10 mi
10:53 PM70 °FPartly cloudy.3 mph81%29.97 "Hg10 mi
9:53 PM70 °FPassing clouds.5 mph81%29.97 "Hg10 mi
8:53 PM71 °FScattered clouds.5 mph76%29.96 "Hg10 mi
7:53 PM72 °FScattered clouds.12 mph76%29.92 "Hg10 mi
6:53 PM73 °FScattered clouds.10 mph71%29.92 "Hg10 mi
5:53 PM75 °FScattered clouds.7 mph69%29.91 "Hg10 mi
4:53 PM76 °FScattered clouds.9 mph64%29.90 "Hg10 mi
3:53 PM76 °FScattered clouds.8 mph67%29.90 "Hg10 mi
2:53 PM76 °FScattered clouds.7 mph67%29.93 "Hg10 mi
1:53 PM78 °FScattered clouds.9 mph64%29.93 "Hg10 mi
12:53 PM78 °FScattered clouds.8 mph64%29.93 "Hg9 mi
11:53 AM77 °FScattered clouds.6 mph66%29.94 "Hg8 mi
10:53 AM73 °FPartly sunny.No wind74%29.94 "Hg8 mi
9:53 AM72 °FOvercast.6 mph76%29.95 "Hg7 mi
8:53 AM71 °FOvercast.No wind78%29.93 "Hg7 mi
7:53 AM70 °FOvercast.6 mph81%29.93 "Hg7 mi
6:53 AM70 °FOvercast.No wind81%29.91 "Hg8 mi
Weather by CustomWeather, © 2015

See weather overviewHow to use our weather pages